This is the latest recevied weather packets stored in our database for station/object K7LDN-13. If no packets are shown the sender has not sent any weather packets the latest 10 day(s).
| Time | Temp. | Humidity | Pressure | Rain* | Wind** | Luminosity | Snow |
|---|---|---|---|---|---|---|---|
| 1777903161 | 16.67° C | 46% | 1013.2 hPa | 0 mm | - | 193 W/m² | - |
| 1777902857 | 15.56° C | 48% | 1013.1 hPa | 0 mm | - | 205 W/m² | - |
| 1777902555 | 15° C | 48% | 1013 hPa | 0 mm | - | 159 W/m² | - |
| 1777902251 | 15° C | 49% | 1013.1 hPa | 0 mm | - | 112 W/m² | - |
| 1777901949 | 15° C | 50% | 1013.1 hPa | 0 mm | - | 97 W/m² | - |
| 1777901647 | 15° C | 50% | 1013.1 hPa | 0 mm | - | 108 W/m² | - |
| 1777901344 | 14.44° C | 50% | 1013.1 hPa | 0 mm | - | 81 W/m² | - |
| 1777901041 | 14.44° C | 51% | 1013.1 hPa | 0 mm | - | 77 W/m² | - |
| 1777900739 | 13.89° C | 51% | 1013.2 hPa | 0 mm | - | 65 W/m² | - |
| 1777900435 | 13.89° C | 52% | 1013 hPa | 0 mm | - | 56 W/m² | - |
| 1777900132 | 13.89° C | 51% | 1013.2 hPa | 0 mm | - | 47 W/m² | - |
| 1777899829 | 13.89° C | 51% | 1013 hPa | 0 mm | - | 39 W/m² | - |
| 1777899526 | 13.89° C | 51% | 1013.1 hPa | 0 mm | - | 32 W/m² | - |
| 1777899224 | 13.89° C | 53% | 1013.1 hPa | 0 mm | - | 25 W/m² | - |
| 1777898921 | 13.89° C | 52% | 1013.3 hPa | 0 mm | - | 20 W/m² | - |
| 1777898618 | 13.89° C | 52% | 1013.1 hPa | 0 mm | - | 15 W/m² | - |
| 1777898315 | 13.89° C | 51% | 1012.8 hPa | 0 mm | - | 11 W/m² | - |
| 1777898012 | 13.89° C | 51% | 1013.1 hPa | 0 mm | - | 8 W/m² | - |
| 1777897708 | 13.89° C | 51% | 1013 hPa | 0 mm | - | 5 W/m² | - |
| 1777897405 | 13.89° C | 52% | 1013.2 hPa | 0 mm | - | 3 W/m² | - |
| 1777897101 | 13.89° C | 51% | 1012.8 hPa | 0 mm | - | 2 W/m² | - |
| 1777896798 | 13.89° C | 51% | 1013.1 hPa | 0 mm | - | 1 W/m² | - |
| 1777896495 | 13.89° C | 51% | 1013 hPa | 0 mm | - | 0 W/m² | - |
| 1777896192 | 13.89° C | 51% | 1013 hPa | 0 mm | - | 0 W/m² | - |
| 1777895890 | 13.89° C | 51% | 1013 hPa | 0 mm | - | 0 W/m² | - |
* Rain latest hour (hover to see other rain measurements)
** Current wind speed in m/s (hover to see current wind gust speed)